Retour au catalogue

CZ-4C DEB

ActifSSO
NORAD 38661·DEBRIS·🇨🇳 China

Lancé May 29, 2012 depuis Taiyuan Satellite Launch Center

Loading…

Prochains Passages (prochaines 24 heures)

TLE

FraisSource: Space-Track

Époque: Sep 13, 2026, 09:20 UTC

1 38661U 12029C   26256.38913322  .00000067  00000-0  26029-3 0  9995
2 38661 100.0511 305.9095 0124665  95.3485 266.1868 13.19912142685192

Suivez CZ-4C DEB en temps réel avec AllMySat

Download on the App Store